Time,TemperatureF,DewpointF,PressureIn,WindDirection,WindDirectionDegrees,WindSpeedMPH,WindSpeedGustMPH,Humidity,HourlyPrecipIn,Conditions,Clouds,dailyrainin,SoftwareType,DateUTC
2014-01-06 00:03:00,38.1,19.2,30.46,ENE,68,0.0,0.0,46,0.00,,---,0.00,VWS V14.01,2014-01-06 06:03:00,
2014-01-06 00:09:00,37.9,19.5,30.46,NNE,22,2.2,2.2,47,0.00,,---,0.00,VWS V14.01,2014-01-06 06:09:00,
2014-01-06 00:14:00,37.7,19.3,30.47,NNE,22,0.0,0.0,47,0.00,,---,0.00,VWS V14.01,2014-01-06 06:14:00,
2014-01-06 00:19:00,37.7,19.3,30.47,NNE,22,1.3,1.3,47,0.00,,---,0.00,VWS V14.01,2014-01-06 06:19:00,
2014-01-06 00:24:00,37.7,19.3,30.47,NE,45,4.0,4.0,47,0.00,,---,0.00,VWS V14.01,2014-01-06 06:24:00,
2014-01-06 00:29:00,37.7,19.3,30.47,NE,45,0.0,0.0,47,0.00,,---,0.00,VWS V14.01,2014-01-06 06:29:00,
2014-01-06 00:34:00,37.5,19.1,30.47,NNE,22,2.2,9.1,47,0.00,,---,0.00,VWS V14.01,2014-01-06 06:34:00,
2014-01-06 00:39:00,37.7,19.3,30.47,NNE,22,1.5,1.5,47,0.00,,---,0.00,VWS V14.01,2014-01-06 06:39:00,
2014-01-06 00:44:00,37.7,19.3,30.48,ENE,68,2.6,2.6,47,0.00,,---,0.00,VWS V14.01,2014-01-06 06:44:00,
2014-01-06 00:49:00,37.7,19.3,30.48,NNW,338,2.0,2.0,47,0.00,,---,0.00,VWS V14.01,2014-01-06 06:49:00,
2014-01-06 00:54:00,37.5,18.6,30.47,North,0,1.5,3.8,46,0.00,,---,0.00,VWS V14.01,2014-01-06 06:54:00,
2014-01-06 00:59:00,37.2,18.3,30.47,NNE,22,4.9,4.9,46,0.00,,---,0.00,VWS V14.01,2014-01-06 06:59:00,
2014-01-06 01:04:00,37.2,18.8,30.47,NNE,22,9.3,9.3,47,0.00,,---,0.00,VWS V14.01,2014-01-06 07:04:00,
2014-01-06 01:09:00,37.2,18.8,30.48,NE,45,7.1,7.1,47,0.00,,---,0.00,VWS V14.01,2014-01-06 07:09:00,
2014-01-06 01:14:00,37.0,18.7,30.48,North,0,4.6,5.3,47,0.00,,---,0.00,VWS V14.01,2014-01-06 07:14:00,
2014-01-06 01:19:00,37.0,18.2,30.48,NNE,22,5.1,5.1,46,0.00,,---,0.00,VWS V14.01,2014-01-06 07:19:00,
2014-01-06 01:25:00,37.0,18.2,30.48,NNE,22,9.3,11.4,46,0.00,,---,0.00,VWS V14.01,2014-01-06 07:25:00,
2014-01-06 01:30:00,36.8,18.0,30.49,NNE,22,6.0,6.0,46,0.00,,---,0.00,VWS V14.01,2014-01-06 07:30:00,
2014-01-06 01:35:00,36.8,18.0,30.49,North,0,5.3,7.6,46,0.00,,---,0.00,VWS V14.01,2014-01-06 07:35:00,
2014-01-06 01:40:00,36.6,17.8,30.49,NE,45,4.9,4.9,46,0.00,,---,0.00,VWS V14.01,2014-01-06 07:40:00,
2014-01-06 01:45:00,36.5,17.7,30.49,North,0,5.1,5.1,46,0.00,,---,0.00,VWS V14.01,2014-01-06 07:45:00,
2014-01-06 01:50:00,36.5,18.2,30.50,NNE,22,5.8,5.8,47,0.00,,---,0.00,VWS V14.01,2014-01-06 07:50:00,
2014-01-06 01:55:00,36.5,18.2,30.50,NE,45,3.8,3.8,47,0.00,,---,0.00,VWS V14.01,2014-01-06 07:55:00,
2014-01-06 02:00:00,36.5,18.2,30.50,NNE,22,3.3,5.5,47,0.00,,---,0.00,VWS V14.01,2014-01-06 08:00:00,
2014-01-06 02:05:00,36.3,17.5,30.50,NNE,22,5.8,5.8,46,0.00,,---,0.00,VWS V14.01,2014-01-06 08:05:00,
2014-01-06 02:10:00,36.5,18.2,30.50,North,0,0.0,2.9,47,0.00,,---,0.00,VWS V14.01,2014-01-06 08:10:00,
2014-01-06 02:15:00,36.3,18.0,30.51,NE,45,7.3,7.3,47,0.00,,---,0.00,VWS V14.01,2014-01-06 08:15:00,
2014-01-06 02:20:00,36.3,17.5,30.51,North,0,3.8,3.8,46,0.00,,---,0.00,VWS V14.01,2014-01-06 08:20:00,
2014-01-06 02:25:00,36.1,17.3,30.51,NNE,22,3.1,3.1,46,0.00,,---,0.00,VWS V14.01,2014-01-06 08:25:00,
2014-01-06 02:30:00,36.1,17.3,30.51,NNE,22,4.4,5.1,46,0.00,,---,0.00,VWS V14.01,2014-01-06 08:30:00,
2014-01-06 02:35:00,36.1,17.3,30.51,NNE,22,2.6,2.6,46,0.00,,---,0.00,VWS V14.01,2014-01-06 08:35:00,
2014-01-06 02:40:00,36.1,17.3,30.51,ENE,68,0.0,2.6,46,0.00,,---,0.00,VWS V14.01,2014-01-06 08:40:00,
2014-01-06 02:45:00,35.9,17.1,30.52,NE,45,3.5,3.5,46,0.00,,---,0.00,VWS V14.01,2014-01-06 08:45:00,
2014-01-06 02:50:00,35.9,17.1,30.52,North,0,0.0,4.6,46,0.00,,---,0.00,VWS V14.01,2014-01-06 08:50:00,
2014-01-06 02:55:00,35.7,17.0,30.53,NW,315,2.9,2.9,46,0.00,,---,0.00,VWS V14.01,2014-01-06 08:55:00,
2014-01-06 03:00:00,35.7,17.0,30.53,NNW,338,3.8,3.8,46,0.00,,---,0.00,VWS V14.01,2014-01-06 09:00:00,
2014-01-06 03:05:00,35.7,17.0,30.53,NNE,22,7.3,7.3,46,0.00,,---,0.00,VWS V14.01,2014-01-06 09:05:00,
2014-01-06 03:10:00,35.6,16.9,30.53,NNE,22,4.9,4.9,46,0.00,,---,0.00,VWS V14.01,2014-01-06 09:10:00,
2014-01-06 03:15:00,35.2,16.5,30.53,NNW,338,6.0,6.0,46,0.00,,---,0.00,VWS V14.01,2014-01-06 09:15:00,
2014-01-06 03:20:00,35.2,16.5,30.54,North,0,3.3,4.0,46,0.00,,---,0.00,VWS V14.01,2014-01-06 09:20:00,
2014-01-06 03:25:00,35.0,16.3,30.54,North,0,2.2,2.2,46,0.00,,---,0.00,VWS V14.01,2014-01-06 09:25:00,
2014-01-06 03:30:00,35.2,17.0,30.54,NNE,22,6.0,6.0,47,0.00,,---,0.00,VWS V14.01,2014-01-06 09:30:00,
2014-01-06 03:36:00,35.0,16.8,30.55,NE,45,4.9,4.9,47,0.00,,---,0.00,VWS V14.01,2014-01-06 09:36:00,
2014-01-06 03:41:00,34.8,16.6,30.54,NW,315,6.0,6.0,47,0.00,,---,0.00,VWS V14.01,2014-01-06 09:41:00,
2014-01-06 03:46:00,34.7,16.5,30.54,NE,45,5.1,5.1,47,0.00,,---,0.00,VWS V14.01,2014-01-06 09:46:00,
2014-01-06 03:51:00,34.7,16.5,30.54,NE,45,6.2,6.4,47,0.00,,---,0.00,VWS V14.01,2014-01-06 09:51:00,
2014-01-06 03:56:00,34.5,16.4,30.55,NNW,338,3.5,3.5,47,0.00,,---,0.00,VWS V14.01,2014-01-06 09:56:00,
2014-01-06 04:01:00,34.3,16.2,30.55,NE,45,6.2,6.2,47,0.00,,---,0.00,VWS V14.01,2014-01-06 10:01:00,
2014-01-06 04:06:00,34.1,16.0,30.55,WNW,292,4.9,5.3,47,0.00,,---,0.00,VWS V14.01,2014-01-06 10:06:00,
2014-01-06 04:11:00,34.1,15.5,30.55,ESE,112,3.8,3.8,46,0.00,,---,0.00,VWS V14.01,2014-01-06 10:11:00,
2014-01-06 04:16:00,33.9,15.3,30.55,NNE,22,4.6,4.6,46,0.00,,---,0.00,VWS V14.01,2014-01-06 10:16:00,
2014-01-06 04:21:00,33.9,15.3,30.56,NE,45,3.5,3.5,46,0.00,,---,0.00,VWS V14.01,2014-01-06 10:21:00,
2014-01-06 04:26:00,33.8,15.2,30.56,NNE,22,2.9,2.9,46,0.00,,---,0.00,VWS V14.01,2014-01-06 10:26:00,
2014-01-06 04:31:00,33.6,15.5,30.56,North,0,3.1,3.1,47,0.00,,---,0.00,VWS V14.01,2014-01-06 10:31:00,
2014-01-06 04:36:00,33.4,15.4,30.56,NNW,338,0.0,4.2,47,0.00,,---,0.00,VWS V14.01,2014-01-06 10:36:00,
2014-01-06 04:41:00,33.4,15.4,30.56,North,0,2.4,2.4,47,0.00,,---,0.00,VWS V14.01,2014-01-06 10:41:00,
2014-01-06 04:46:00,33.4,15.4,30.56,North,0,0.0,0.0,47,0.00,,---,0.00,VWS V14.01,2014-01-06 10:46:00,
2014-01-06 04:51:00,33.2,15.2,30.57,NNW,338,6.0,6.0,47,0.00,,---,0.00,VWS V14.01,2014-01-06 10:51:00,
2014-01-06 04:56:00,33.2,15.6,30.57,NNW,338,1.7,2.6,48,0.00,,---,0.00,VWS V14.01,2014-01-06 10:56:00,
2014-01-06 05:01:00,32.9,15.4,30.57,NNE,22,2.6,2.6,48,0.00,,---,0.00,VWS V14.01,2014-01-06 11:01:00,
2014-01-06 05:06:00,32.7,15.2,30.58,NNE,22,5.3,5.3,48,0.00,,---,0.00,VWS V14.01,2014-01-06 11:06:00,
2014-01-06 05:11:00,32.5,15.0,30.58,NE,45,5.3,5.3,48,0.00,,---,0.00,VWS V14.01,2014-01-06 11:11:00,
2014-01-06 05:16:00,32.5,15.0,30.58,North,0,8.9,8.9,48,0.00,,---,0.00,VWS V14.01,2014-01-06 11:16:00,
2014-01-06 05:21:00,32.3,14.8,30.58,North,0,8.5,8.5,48,0.00,,---,0.00,VWS V14.01,2014-01-06 11:21:00,
2014-01-06 05:26:00,32.3,14.8,30.58,NE,45,2.9,2.9,48,0.00,,---,0.00,VWS V14.01,2014-01-06 11:26:00,
2014-01-06 05:31:00,32.1,14.6,30.59,ESE,112,4.2,4.2,48,0.00,,---,0.00,VWS V14.01,2014-01-06 11:31:00,
2014-01-06 05:36:00,32.1,14.6,30.59,NNE,22,8.0,8.0,48,0.00,,---,0.00,VWS V14.01,2014-01-06 11:36:00,
2014-01-06 05:42:00,32.1,14.6,30.59,NNW,338,5.8,5.8,48,0.00,,---,0.00,VWS V14.01,2014-01-06 11:42:00,
2014-01-06 05:47:00,31.8,14.4,30.60,NNE,22,5.3,6.0,48,0.00,,---,0.00,VWS V14.01,2014-01-06 11:47:00,
2014-01-06 05:52:00,31.6,14.2,30.60,North,0,6.4,10.5,48,0.00,,---,0.00,VWS V14.01,2014-01-06 11:52:00,
2014-01-06 05:57:00,31.6,14.2,30.61,NNE,22,2.0,5.1,48,0.00,,---,0.00,VWS V14.01,2014-01-06 11:57:00,
2014-01-06 06:02:00,31.6,14.2,30.61,NW,315,3.3,3.3,48,0.00,,---,0.00,VWS V14.01,2014-01-06 12:02:00,
2014-01-06 06:07:00,31.4,14.0,30.62,NNE,22,3.5,3.5,48,0.00,,---,0.00,VWS V14.01,2014-01-06 12:07:00,
2014-01-06 06:12:00,31.2,13.8,30.62,NE,45,1.5,4.4,48,0.00,,---,0.00,VWS V14.01,2014-01-06 12:12:00,
2014-01-06 06:17:00,31.2,13.8,30.62,NNW,338,5.1,5.1,48,0.00,,---,0.00,VWS V14.01,2014-01-06 12:17:00,
2014-01-06 06:22:00,31.1,14.2,30.63,NNE,22,9.1,9.1,49,0.00,,---,0.00,VWS V14.01,2014-01-06 12:22:00,
2014-01-06 06:27:00,31.1,14.2,30.63,North,0,0.0,0.0,49,0.00,,---,0.00,VWS V14.01,2014-01-06 12:27:00,
2014-01-06 06:32:00,31.1,14.2,30.64,North,0,0.0,2.9,49,0.00,,---,0.00,VWS V14.01,2014-01-06 12:32:00,
2014-01-06 06:37:00,30.9,14.0,30.64,NNW,338,2.4,2.4,49,0.00,,---,0.00,VWS V14.01,2014-01-06 12:37:00,
2014-01-06 06:42:00,30.7,13.8,30.65,NNE,22,4.0,12.3,49,0.00,,---,0.00,VWS V14.01,2014-01-06 12:42:00,
2014-01-06 06:47:00,30.5,13.6,30.65,North,0,4.6,4.6,49,0.00,,---,0.00,VWS V14.01,2014-01-06 12:47:00,
2014-01-06 06:52:00,30.5,13.6,30.65,North,0,7.8,7.8,49,0.00,,---,0.00,VWS V14.01,2014-01-06 12:52:00,
2014-01-06 06:57:00,30.3,13.4,30.66,NE,45,3.3,3.3,49,0.00,,---,0.00,VWS V14.01,2014-01-06 12:57:00,
2014-01-06 07:02:00,30.3,13.9,30.66,NE,45,1.5,1.7,50,0.00,,---,0.00,VWS V14.01,2014-01-06 13:02:00,
2014-01-06 07:07:00,30.3,13.9,30.67,NE,45,2.4,2.4,50,0.00,,---,0.00,VWS V14.01,2014-01-06 13:07:00,
2014-01-06 07:12:00,30.3,13.9,30.67,NNE,22,1.7,1.7,50,0.00,,---,0.00,VWS V14.01,2014-01-06 13:12:00,
2014-01-06 07:17:00,30.3,13.9,30.67,North,0,0.0,0.0,50,0.00,,---,0.00,VWS V14.01,2014-01-06 13:17:00,
2014-01-06 07:22:00,30.3,13.9,30.68,North,0,4.2,4.9,50,0.00,,---,0.00,VWS V14.01,2014-01-06 13:22:00,
2014-01-06 07:27:00,30.3,13.9,30.68,NNW,338,6.0,6.0,50,0.00,,---,0.00,VWS V14.01,2014-01-06 13:27:00,
2014-01-06 07:32:00,30.2,13.8,30.68,NE,45,5.3,5.3,50,0.00,,---,0.00,VWS V14.01,2014-01-06 13:32:00,
2014-01-06 07:37:00,30.2,13.8,30.69,North,0,0.0,0.0,50,0.00,,---,0.00,VWS V14.01,2014-01-06 13:37:00,
2014-01-06 07:42:00,30.2,13.8,30.69,NNE,22,4.0,4.0,50,0.00,,---,0.00,VWS V14.01,2014-01-06 13:42:00,
2014-01-06 07:47:00,30.3,13.9,30.70,North,0,8.0,8.0,50,0.00,,---,0.00,VWS V14.01,2014-01-06 13:47:00,
2014-01-06 07:52:00,30.3,13.9,30.70,NE,45,5.3,5.3,50,0.00,,---,0.00,VWS V14.01,2014-01-06 13:52:00,
2014-01-06 07:58:00,30.2,13.8,30.70,NNE,22,2.6,2.6,50,0.00,,---,0.00,VWS V14.01,2014-01-06 13:58:00,
2014-01-06 08:03:00,30.3,13.9,30.70,NNW,338,4.6,4.6,50,0.00,,---,0.00,VWS V14.01,2014-01-06 14:03:00,
2014-01-06 08:05:00,30.5,14.1,30.70,North,0,9.8,9.8,50,0.00,,---,0.00,VWS V14.01,2014-01-06 14:05:00,
2014-01-06 08:10:00,30.5,14.1,30.70,NNE,22,0.0,0.0,50,0.00,,---,0.00,VWS V14.01,2014-01-06 14:10:00,
2014-01-06 08:15:00,30.9,14.5,30.70,North,0,5.3,5.3,50,0.00,,---,0.00,VWS V14.01,2014-01-06 14:15:00,
2014-01-06 08:20:00,30.9,14.0,30.71,WNW,292,0.0,4.6,49,0.00,,---,0.00,VWS V14.01,2014-01-06 14:20:00,
2014-01-06 08:25:00,31.1,14.2,30.70,NE,45,2.2,2.2,49,0.00,,---,0.00,VWS V14.01,2014-01-06 14:25:00,
2014-01-06 08:30:00,31.1,14.2,30.71,NNE,22,1.5,6.7,49,0.00,,---,0.00,VWS V14.01,2014-01-06 14:30:00,
2014-01-06 08:35:00,31.4,14.5,30.72,NNW,338,7.6,7.6,49,0.00,,---,0.00,VWS V14.01,2014-01-06 14:35:00,
2014-01-06 08:40:00,31.6,14.6,30.72,WNW,292,5.5,5.5,49,0.00,,---,0.00,VWS V14.01,2014-01-06 14:40:00,
2014-01-06 08:45:00,32.0,15.0,30.73,North,0,2.2,2.2,49,0.00,,---,0.00,VWS V14.01,2014-01-06 14:45:00,
2014-01-06 08:50:00,32.1,14.6,30.73,NW,315,0.0,4.9,48,0.00,,---,0.00,VWS V14.01,2014-01-06 14:50:00,
2014-01-06 08:55:00,32.1,14.6,30.73,NE,45,6.2,6.2,48,0.00,,---,0.00,VWS V14.01,2014-01-06 14:55:00,
2014-01-06 09:00:00,32.3,14.8,30.74,NNW,338,2.0,3.1,48,0.00,,---,0.00,VWS V14.01,2014-01-06 15:00:00,
2014-01-06 09:05:00,32.3,14.3,30.74,NW,315,2.2,2.2,47,0.00,,---,0.00,VWS V14.01,2014-01-06 15:05:00,
2014-01-06 09:10:00,32.3,14.3,30.74,NNE,22,5.8,5.8,47,0.00,,---,0.00,VWS V14.01,2014-01-06 15:10:00,
2014-01-06 09:15:00,32.5,14.0,30.74,ENE,68,2.0,2.0,46,0.00,,---,0.00,VWS V14.01,2014-01-06 15:15:00,
2014-01-06 09:20:00,32.5,14.0,30.74,NE,45,2.9,6.2,46,0.00,,---,0.00,VWS V14.01,2014-01-06 15:20:00,
2014-01-06 09:25:00,32.9,14.4,30.75,North,0,10.9,10.9,46,0.00,,---,0.00,VWS V14.01,2014-01-06 15:25:00,
2014-01-06 09:30:00,33.0,14.5,30.75,NNW,338,3.8,8.9,46,0.00,,---,0.00,VWS V14.01,2014-01-06 15:30:00,
2014-01-06 09:35:00,33.2,14.7,30.76,NNE,22,4.2,4.2,46,0.00,,---,0.00,VWS V14.01,2014-01-06 15:35:00,
2014-01-06 09:40:00,33.6,14.5,30.76,ENE,68,1.7,1.7,45,0.00,,---,0.00,VWS V14.01,2014-01-06 15:40:00,
2014-01-06 09:46:00,33.9,14.8,30.76,NE,45,8.0,8.0,45,0.00,,---,0.00,VWS V14.01,2014-01-06 15:46:00,
2014-01-06 09:51:00,34.1,15.0,30.77,NE,45,5.3,5.5,45,0.00,,---,0.00,VWS V14.01,2014-01-06 15:51:00,
2014-01-06 09:56:00,34.5,14.9,30.77,NNE,22,10.0,10.0,44,0.00,,---,0.00,VWS V14.01,2014-01-06 15:56:00,
2014-01-06 10:01:00,34.3,14.1,30.77,NNE,22,0.0,8.0,43,0.00,,---,0.00,VWS V14.01,2014-01-06 16:01:00,
2014-01-06 10:06:00,34.5,14.3,30.77,NE,45,3.8,7.1,43,0.00,,---,0.00,VWS V14.01,2014-01-06 16:06:00,
2014-01-06 10:11:00,34.7,14.5,30.77,NE,45,4.0,4.0,43,0.00,,---,0.00,VWS V14.01,2014-01-06 16:11:00,
2014-01-06 10:16:00,34.8,14.6,30.78,NNW,338,6.4,6.4,43,0.00,,---,0.00,VWS V14.01,2014-01-06 16:16:00,
2014-01-06 10:21:00,35.0,14.2,30.78,NNW,338,0.0,0.0,42,0.00,,---,0.00,VWS V14.01,2014-01-06 16:21:00,
2014-01-06 10:26:00,35.2,14.4,30.78,NW,315,0.0,4.4,42,0.00,,---,0.00,VWS V14.01,2014-01-06 16:26:00,
2014-01-06 10:31:00,35.4,14.6,30.79,NNW,338,7.1,7.1,42,0.00,,---,0.00,VWS V14.01,2014-01-06 16:31:00,
2014-01-06 10:36:00,35.4,14.1,30.79,NNW,338,2.2,6.2,41,0.00,,---,0.00,VWS V14.01,2014-01-06 16:36:00,
2014-01-06 10:41:00,35.4,14.1,30.78,NNE,22,0.0,0.0,41,0.00,,---,0.00,VWS V14.01,2014-01-06 16:41:00,
2014-01-06 10:46:00,35.7,14.3,30.78,NNE,22,2.6,2.6,41,0.00,,---,0.00,VWS V14.01,2014-01-06 16:46:00,
2014-01-06 10:51:00,35.9,14.5,30.78,NNE,22,10.9,10.9,41,0.00,,---,0.00,VWS V14.01,2014-01-06 16:51:00,
2014-01-06 10:56:00,35.9,13.9,30.79,NE,45,6.2,6.2,40,0.00,,---,0.00,VWS V14.01,2014-01-06 16:56:00,
2014-01-06 11:01:00,35.9,13.9,30.79,North,0,5.1,5.1,40,0.00,,---,0.00,VWS V14.01,2014-01-06 17:01:00,
2014-01-06 11:06:00,35.9,13.9,30.79,NNW,338,2.6,2.6,40,0.00,,---,0.00,VWS V14.01,2014-01-06 17:06:00,
2014-01-06 11:11:00,36.3,14.3,30.79,NNE,22,4.4,4.4,40,0.00,,---,0.00,VWS V14.01,2014-01-06 17:11:00,
2014-01-06 11:16:00,36.5,14.5,30.79,NNE,22,5.3,5.3,40,0.00,,---,0.00,VWS V14.01,2014-01-06 17:16:00,
2014-01-06 11:21:00,36.5,13.9,30.79,North,0,7.1,7.1,39,0.00,,---,0.00,VWS V14.01,2014-01-06 17:21:00,
2014-01-06 11:26:00,36.5,13.9,30.78,ENE,68,4.6,4.6,39,0.00,,---,0.00,VWS V14.01,2014-01-06 17:26:00,
2014-01-06 11:32:00,36.6,13.4,30.78,NNE,22,2.4,2.4,38,0.00,,---,0.00,VWS V14.01,2014-01-06 17:32:00,
2014-01-06 11:37:00,36.6,12.8,30.78,NNE,22,2.2,2.4,37,0.00,,---,0.00,VWS V14.01,2014-01-06 17:37:00,
2014-01-06 11:42:00,36.6,12.8,30.78,East,90,3.1,12.5,37,0.00,,---,0.00,VWS V14.01,2014-01-06 17:42:00,
2014-01-06 11:47:00,36.6,12.2,30.77,North,0,0.0,3.5,36,0.00,,---,0.00,VWS V14.01,2014-01-06 17:47:00,
2014-01-06 11:52:00,36.8,12.4,30.76,North,0,2.2,4.4,36,0.00,,---,0.00,VWS V14.01,2014-01-06 17:52:00,
2014-01-06 11:57:00,37.0,12.5,30.76,ENE,68,0.0,0.0,36,0.00,,---,0.00,VWS V14.01,2014-01-06 17:57:00,
2014-01-06 12:02:00,37.0,11.9,30.76,NNE,22,3.1,3.1,35,0.00,,---,0.00,VWS V14.01,2014-01-06 18:02:00,
2014-01-06 12:07:00,37.0,11.9,30.76,NE,45,9.8,9.8,35,0.00,,---,0.00,VWS V14.01,2014-01-06 18:07:00,
2014-01-06 12:12:00,37.0,11.9,30.75,NNE,22,10.9,10.9,35,0.00,,---,0.00,VWS V14.01,2014-01-06 18:12:00,
2014-01-06 12:17:00,37.0,11.2,30.75,NNW,338,6.9,6.9,34,0.00,,---,0.00,VWS V14.01,2014-01-06 18:17:00,
2014-01-06 12:22:00,37.0,10.6,30.74,WNW,292,4.9,4.9,33,0.00,,---,0.00,VWS V14.01,2014-01-06 18:22:00,
2014-01-06 12:27:00,37.0,10.6,30.74,NE,45,2.6,2.6,33,0.00,,---,0.00,VWS V14.01,2014-01-06 18:27:00,
2014-01-06 12:32:00,37.0,9.9,30.74,NNW,338,3.8,4.0,32,0.00,,---,0.00,VWS V14.01,2014-01-06 18:32:00,
2014-01-06 12:37:00,37.4,10.2,30.74,NNE,22,6.0,6.0,32,0.00,,---,0.00,VWS V14.01,2014-01-06 18:37:00,
2014-01-06 12:42:00,37.5,10.3,30.74,North,0,2.4,4.4,32,0.00,,---,0.00,VWS V14.01,2014-01-06 18:42:00,
2014-01-06 12:47:00,37.5,10.3,30.74,West,270,3.3,3.3,32,0.00,,---,0.00,VWS V14.01,2014-01-06 18:47:00,
2014-01-06 12:52:00,37.7,10.5,30.74,NE,45,6.2,6.4,32,0.00,,---,0.00,VWS V14.01,2014-01-06 18:52:00,
2014-01-06 12:57:00,37.7,10.5,30.74,NE,45,6.4,6.4,32,0.00,,---,95.71,VWS V14.01,2014-01-06 18:57:00,
2014-01-06 13:02:00,37.7,9.8,30.74,WNW,292,12.0,12.0,31,0.00,,---,0.00,VWS V14.01,2014-01-06 19:02:00,
2014-01-06 13:07:00,37.7,6.8,30.74,North,0,0.0,0.0,30,0.00,,---,0.00,VWS V14.01,2014-01-06 19:07:00,
2014-01-06 13:12:00,37.9,5.2,30.74,ENE,68,12.0,12.0,30,0.00,,---,0.00,VWS V14.01,2014-01-06 19:12:00,
2014-01-06 13:17:00,38.1,7.9,30.74,NNW,338,2.9,2.9,30,0.00,,---,0.00,VWS V14.01,2014-01-06 19:17:00,
2014-01-06 13:22:00,38.3,8.1,30.74,NW,315,0.0,6.4,30,0.00,,---,0.00,VWS V14.01,2014-01-06 19:22:00,
2014-01-06 13:28:00,38.3,7.3,30.74,North,0,0.0,0.0,30,0.00,,---,0.00,VWS V14.01,2014-01-06 19:28:00,
2014-01-06 13:33:00,38.3,7.3,30.73,NNW,338,6.9,6.9,30,0.00,,---,0.00,VWS V14.01,2014-01-06 19:33:00,
2014-01-06 13:38:00,38.4,4.8,30.73,NNW,338,4.9,5.8,30,0.00,,---,0.00,VWS V14.01,2014-01-06 19:38:00,
2014-01-06 13:43:00,38.6,4.0,30.72,NE,45,0.0,6.4,30,0.00,,---,0.00,VWS V14.01,2014-01-06 19:43:00,
2014-01-06 13:48:00,38.6,2.0,30.73,NNE,22,2.2,3.5,30,0.00,,---,0.00,VWS V14.01,2014-01-06 19:48:00,
2014-01-06 13:53:00,38.6,2.0,30.72,NW,315,2.6,2.6,30,0.00,,---,0.00,VWS V14.01,2014-01-06 19:53:00,
2014-01-06 13:58:00,38.6,0.1,30.71,NNE,22,8.0,8.0,30,0.00,,---,0.00,VWS V14.01,2014-01-06 19:58:00,
2014-01-06 14:03:00,38.6,0.1,30.71,NNW,338,2.9,2.9,30,0.00,,---,0.00,VWS V14.01,2014-01-06 20:03:00,
2014-01-06 14:08:00,38.8,0.1,30.71,North,0,8.0,8.2,30,0.00,,---,0.00,VWS V14.01,2014-01-06 20:08:00,
2014-01-06 14:13:00,39.2,0.4,30.71,North,0,3.8,3.8,30,0.00,,---,0.00,VWS V14.01,2014-01-06 20:13:00,
2014-01-06 14:18:00,39.0,0.2,30.70,ENE,68,7.3,7.3,30,0.00,,---,0.00,VWS V14.01,2014-01-06 20:18:00,
2014-01-06 14:23:00,39.0,0.2,30.71,NW,315,5.1,5.1,30,0.00,,---,0.00,VWS V14.01,2014-01-06 20:23:00,
2014-01-06 14:28:00,39.0,0.2,30.72,NE,45,3.5,3.5,30,0.00,,---,0.00,VWS V14.01,2014-01-06 20:28:00,
2014-01-06 14:33:00,39.3,0.5,30.72,NNW,338,8.7,8.7,30,0.00,,---,0.00,VWS V14.01,2014-01-06 20:33:00,
2014-01-06 14:38:00,39.5,0.7,30.72,NE,45,4.6,4.6,30,0.00,,---,0.00,VWS V14.01,2014-01-06 20:38:00,
2014-01-06 14:43:00,39.7,0.8,30.72,South,180,0.0,0.0,30,0.00,,---,0.00,VWS V14.01,2014-01-06 20:43:00,
2014-01-06 14:48:00,39.9,1.0,30.73,NE,45,1.5,5.8,30,0.00,,---,95.71,VWS V14.01,2014-01-06 20:48:00,
2014-01-06 14:53:00,39.9,1.0,30.73,North,0,3.3,3.3,30,0.00,,---,0.00,VWS V14.01,2014-01-06 20:53:00,
2014-01-06 14:58:00,39.9,1.0,30.72,NNE,22,9.8,9.8,30,0.00,,---,0.00,VWS V14.01,2014-01-06 20:58:00,
2014-01-06 15:04:00,39.9,1.0,30.73,East,90,5.1,5.1,30,0.00,,---,0.00,VWS V14.01,2014-01-06 21:04:00,
2014-01-06 15:09:00,39.9,1.0,30.74,NNW,338,6.0,6.0,30,0.00,,---,0.00,VWS V14.01,2014-01-06 21:09:00,
2014-01-06 15:14:00,39.9,1.0,30.74,NE,45,0.0,0.0,30,0.00,,---,0.00,VWS V14.01,2014-01-06 21:14:00,
2014-01-06 15:19:00,39.9,1.0,30.74,NNE,22,2.6,6.7,30,0.00,,---,0.00,VWS V14.01,2014-01-06 21:19:00,
2014-01-06 15:24:00,40.1,1.2,30.74,NW,315,6.7,8.7,30,0.00,,---,0.00,VWS V14.01,2014-01-06 21:24:00,
2014-01-06 15:29:00,39.9,1.0,30.74,NNW,338,2.9,2.9,30,0.00,,---,95.71,VWS V14.01,2014-01-06 21:29:00,
2014-01-06 15:34:00,39.7,0.8,30.74,NNE,22,5.3,6.2,30,0.00,,---,0.00,VWS V14.01,2014-01-06 21:34:00,
2014-01-06 15:39:00,39.7,0.8,30.74,NNE,22,0.0,0.0,30,0.00,,---,0.00,VWS V14.01,2014-01-06 21:39:00,
2014-01-06 15:44:00,39.5,0.7,30.74,NNE,22,4.0,4.0,30,0.00,,---,0.00,VWS V14.01,2014-01-06 21:44:00,
2014-01-06 15:49:00,39.5,0.7,30.74,WNW,292,0.0,0.0,30,0.00,,---,0.00,VWS V14.01,2014-01-06 21:49:00,
2014-01-06 15:54:00,39.3,0.5,30.74,North,0,6.9,6.9,30,0.00,,---,0.00,VWS V14.01,2014-01-06 21:54:00,
2014-01-06 15:59:00,39.0,0.2,30.74,North,0,3.5,3.5,30,0.00,,---,0.00,VWS V14.01,2014-01-06 21:59:00,
2014-01-06 16:04:00,38.8,0.1,30.74,North,0,6.0,6.0,30,0.00,,---,0.00,VWS V14.01,2014-01-06 22:04:00,
2014-01-06 16:09:00,38.4,0.1,30.74,NE,45,9.1,9.1,30,0.00,,---,0.00,VWS V14.01,2014-01-06 22:09:00,
2014-01-06 16:14:00,38.3,0.1,30.74,WNW,292,2.2,2.2,30,0.00,,---,0.00,VWS V14.01,2014-01-06 22:14:00,
2014-01-06 16:19:00,38.1,0.1,30.74,North,0,1.1,1.1,30,0.00,,---,0.00,VWS V14.01,2014-01-06 22:19:00,
2014-01-06 16:24:00,37.9,0.1,30.74,NNE,22,1.3,1.3,30,0.00,,---,0.00,VWS V14.01,2014-01-06 22:24:00,
2014-01-06 16:29:00,37.9,0.1,30.74,North,0,0.0,0.0,30,0.00,,---,0.00,VWS V14.01,2014-01-06 22:29:00,
2014-01-06 16:34:00,37.5,0.1,30.73,NNW,338,5.5,5.5,30,0.00,,---,0.00,VWS V14.01,2014-01-06 22:34:00,
2014-01-06 16:40:00,37.5,0.1,30.75,North,0,3.3,3.3,30,0.00,,---,0.00,VWS V14.01,2014-01-06 22:40:00,
2014-01-06 16:45:00,37.4,0.1,30.75,NNE,22,2.0,2.0,30,0.00,,---,0.00,VWS V14.01,2014-01-06 22:45:00,
2014-01-06 16:50:00,37.2,0.1,30.75,NNE,22,3.3,4.6,30,0.00,,---,0.00,VWS V14.01,2014-01-06 22:50:00,
2014-01-06 16:55:00,37.4,0.1,30.74,NNE,22,3.8,3.8,30,0.00,,---,0.00,VWS V14.01,2014-01-06 22:55:00,
2014-01-06 17:00:00,37.0,0.1,30.74,North,0,0.0,0.0,30,0.00,,---,0.00,VWS V14.01,2014-01-06 23:00:00,
2014-01-06 17:05:00,37.0,0.1,30.74,NNE,22,2.2,2.2,30,0.00,,---,0.00,VWS V14.01,2014-01-06 23:05:00,
2014-01-06 17:10:00,36.8,0.1,30.74,North,0,5.1,5.1,30,0.00,,---,0.00,VWS V14.01,2014-01-06 23:10:00,
2014-01-06 17:15:00,36.5,0.1,30.74,North,0,5.1,5.1,30,0.00,,---,0.00,VWS V14.01,2014-01-06 23:15:00,
2014-01-06 17:20:00,36.3,0.1,30.74,NNE,22,3.1,3.1,30,0.00,,---,0.00,VWS V14.01,2014-01-06 23:20:00,
2014-01-06 17:25:00,36.1,0.1,30.73,ENE,68,0.0,0.0,30,0.00,,---,0.00,VWS V14.01,2014-01-06 23:25:00,
2014-01-06 17:30:00,35.9,0.1,30.74,NE,45,0.0,1.3,30,0.00,,---,0.00,VWS V14.01,2014-01-06 23:30:00,
2014-01-06 17:35:00,35.7,0.1,30.74,North,0,0.0,0.0,30,0.00,,---,0.00,VWS V14.01,2014-01-06 23:35:00,
2014-01-06 17:40:00,35.7,0.1,30.74,NNW,338,0.0,4.6,30,0.00,,---,0.00,VWS V14.01,2014-01-06 23:40:00,
2014-01-06 17:45:00,35.4,0.1,30.74,North,0,3.1,3.1,30,0.00,,---,0.00,VWS V14.01,2014-01-06 23:45:00,
2014-01-06 17:50:00,35.2,0.1,30.74,NE,45,2.6,2.6,30,0.00,,---,0.00,VWS V14.01,2014-01-06 23:50:00,
2014-01-06 17:55:00,35.0,0.1,30.74,NE,45,0.0,0.0,30,0.00,,---,0.00,VWS V14.01,2014-01-06 23:55:00,
2014-01-06 18:00:00,35.0,0.1,30.75,NW,315,0.0,0.0,30,0.00,,---,0.00,VWS V14.01,2014-01-07 00:00:00,
2014-01-06 18:05:00,35.0,0.1,30.75,NNW,338,0.0,0.0,30,0.00,,---,0.00,VWS V14.01,2014-01-07 00:05:00,
2014-01-06 18:10:00,34.8,0.1,30.76,South,180,0.0,0.0,30,0.00,,---,0.00,VWS V14.01,2014-01-07 00:10:00,
2014-01-06 18:15:00,34.8,0.1,30.76,NNW,338,1.5,1.5,30,0.00,,---,0.00,VWS V14.01,2014-01-07 00:15:00,
2014-01-06 18:20:00,34.7,0.1,30.76,North,0,1.3,1.3,30,0.00,,---,0.00,VWS V14.01,2014-01-07 00:20:00,
2014-01-06 18:25:00,34.5,0.1,30.76,NW,315,2.6,2.6,30,0.00,,---,0.00,VWS V14.01,2014-01-07 00:25:00,
2014-01-06 18:30:00,34.5,0.1,30.76,NNE,22,0.0,0.0,30,0.00,,---,0.00,VWS V14.01,2014-01-07 00:30:00,
2014-01-06 18:35:00,34.5,0.1,30.76,NNW,338,0.0,0.0,30,0.00,,---,0.00,VWS V14.01,2014-01-07 00:35:00,
2014-01-06 18:41:00,34.5,0.1,30.76,NNE,22,0.0,1.7,30,0.00,,---,0.00,VWS V14.01,2014-01-07 00:41:00,
2014-01-06 18:46:00,34.5,0.1,30.76,NNE,22,4.0,4.0,30,0.00,,---,0.00,VWS V14.01,2014-01-07 00:46:00,
2014-01-06 18:51:00,34.3,0.1,30.76,ENE,68,0.0,2.0,30,0.00,,---,0.00,VWS V14.01,2014-01-07 00:51:00,
2014-01-06 18:56:00,34.3,0.1,30.76,North,0,4.2,4.2,30,0.00,,---,0.00,VWS V14.01,2014-01-07 00:56:00,
2014-01-06 19:01:00,34.3,0.1,30.76,WNW,292,3.1,3.1,30,0.00,,---,0.00,VWS V14.01,2014-01-07 01:01:00,
2014-01-06 19:06:00,34.3,0.1,30.76,North,0,4.0,4.0,30,0.00,,---,0.00,VWS V14.01,2014-01-07 01:06:00,
2014-01-06 19:11:00,34.1,0.1,30.75,NNE,22,0.0,0.0,30,0.00,,---,0.00,VWS V14.01,2014-01-07 01:11:00,
2014-01-06 19:16:00,34.1,0.1,30.76,NNW,338,0.0,5.1,30,0.00,,---,0.00,VWS V14.01,2014-01-07 01:16:00,
2014-01-06 19:21:00,33.9,0.1,30.76,NNW,338,2.6,2.6,30,0.00,,---,0.00,VWS V14.01,2014-01-07 01:21:00,
2014-01-06 19:26:00,33.9,0.1,30.76,WNW,292,2.0,2.0,30,0.00,,---,0.00,VWS V14.01,2014-01-07 01:26:00,
2014-01-06 19:31:00,33.9,0.1,30.76,NW,315,3.1,3.1,30,0.00,,---,0.00,VWS V14.01,2014-01-07 01:31:00,
2014-01-06 19:36:00,33.9,0.1,30.76,NNW,338,0.0,2.6,30,0.00,,---,0.00,VWS V14.01,2014-01-07 01:36:00,
2014-01-06 19:41:00,33.9,0.1,30.77,WNW,292,0.0,0.0,30,0.00,,---,0.00,VWS V14.01,2014-01-07 01:41:00,
2014-01-06 19:46:00,33.9,0.1,30.76,North,0,0.0,0.0,30,0.00,,---,0.00,VWS V14.01,2014-01-07 01:46:00,
2014-01-06 19:52:00,33.9,0.1,30.77,NW,315,5.3,5.3,30,0.00,,---,0.00,VWS V14.01,2014-01-07 01:52:00,
2014-01-06 19:57:00,33.9,0.1,30.77,WNW,292,0.0,0.0,30,0.00,,---,0.00,VWS V14.01,2014-01-07 01:57:00,
2014-01-06 20:02:00,33.9,0.1,30.78,WNW,292,0.0,0.0,30,0.00,,---,0.00,VWS V14.01,2014-01-07 02:02:00,
2014-01-06 20:07:00,33.8,0.1,30.78,NW,315,0.0,0.0,30,0.00,,---,0.00,VWS V14.01,2014-01-07 02:07:00,
2014-01-06 20:12:00,33.6,0.1,30.78,NNW,338,0.0,0.6,30,0.00,,---,0.00,VWS V14.01,2014-01-07 02:12:00,
2014-01-06 20:17:00,33.4,0.1,30.78,NE,45,1.5,1.5,30,0.00,,---,0.00,VWS V14.01,2014-01-07 02:17:00,
2014-01-06 20:22:00,33.4,0.1,30.78,NNE,22,0.0,0.0,30,0.00,,---,0.00,VWS V14.01,2014-01-07 02:22:00,
2014-01-06 20:27:00,33.4,0.1,30.77,NNE,22,3.8,3.8,30,0.00,,---,0.00,VWS V14.01,2014-01-07 02:27:00,
2014-01-06 20:32:00,33.4,0.1,30.78,NNW,338,3.8,3.8,30,0.00,,---,0.00,VWS V14.01,2014-01-07 02:32:00,
2014-01-06 20:37:00,33.4,0.5,30.78,NE,45,4.6,4.6,30,0.00,,---,0.00,VWS V14.01,2014-01-07 02:37:00,
2014-01-06 20:42:00,33.4,0.5,30.78,NNE,22,0.0,0.0,30,0.00,,---,0.00,VWS V14.01,2014-01-07 02:42:00,
2014-01-06 20:47:00,33.4,0.5,30.78,NNW,338,0.0,0.0,30,0.00,,---,0.00,VWS V14.01,2014-01-07 02:47:00,
2014-01-06 20:52:00,33.2,1.2,30.79,NW,315,3.1,3.1,30,0.00,,---,0.00,VWS V14.01,2014-01-07 02:52:00,
2014-01-06 20:57:00,33.2,1.2,30.79,West,270,0.0,0.0,30,0.00,,---,0.00,VWS V14.01,2014-01-07 02:57:00,
2014-01-06 21:02:00,33.2,2.8,30.79,North,0,0.0,0.0,30,0.00,,---,0.00,VWS V14.01,2014-01-07 03:02:00,
2014-01-06 21:07:00,33.0,2.7,30.79,North,0,6.9,6.9,30,0.00,,---,0.00,VWS V14.01,2014-01-07 03:07:00,
2014-01-06 21:12:00,32.9,3.4,30.79,NW,315,2.0,2.0,30,0.00,,---,0.00,VWS V14.01,2014-01-07 03:12:00,
2014-01-06 21:17:00,32.9,4.1,30.79,NNW,338,0.0,0.0,30,0.00,,---,0.00,VWS V14.01,2014-01-07 03:17:00,
2014-01-06 21:22:00,32.9,4.9,30.79,North,0,1.5,3.8,30,0.00,,---,0.00,VWS V14.01,2014-01-07 03:22:00,
2014-01-06 21:27:00,32.7,4.7,30.79,North,0,0.0,0.0,30,0.00,,---,0.00,VWS V14.01,2014-01-07 03:27:00,
2014-01-06 21:33:00,32.7,4.7,30.79,NNW,338,0.0,0.0,30,0.00,,---,0.00,VWS V14.01,2014-01-07 03:33:00,
2014-01-06 21:38:00,32.5,5.2,30.79,NW,315,0.0,0.0,31,0.00,,---,0.00,VWS V14.01,2014-01-07 03:38:00,
2014-01-06 21:43:00,32.5,5.9,30.79,NE,45,0.0,0.0,32,0.00,,---,0.00,VWS V14.01,2014-01-07 03:43:00,
2014-01-06 21:48:00,32.5,7.3,30.79,West,270,0.0,0.0,34,0.00,,---,0.00,VWS V14.01,2014-01-07 03:48:00,
2014-01-06 21:53:00,32.3,7.1,30.79,North,0,0.0,0.0,34,0.00,,---,0.00,VWS V14.01,2014-01-07 03:53:00,
2014-01-06 21:58:00,32.3,7.1,30.79,NNE,22,0.0,0.0,34,0.00,,---,0.00,VWS V14.01,2014-01-07 03:58:00,
2014-01-06 22:03:00,32.1,7.6,30.79,NE,45,0.0,0.0,35,0.00,,---,0.00,VWS V14.01,2014-01-07 04:03:00,
2014-01-06 22:08:00,32.1,7.6,30.78,North,0,0.0,0.0,35,0.00,,---,0.00,VWS V14.01,2014-01-07 04:08:00,
2014-01-06 22:13:00,32.0,8.1,30.79,North,0,0.0,0.0,36,0.00,,---,0.00,VWS V14.01,2014-01-07 04:13:00,
2014-01-06 22:18:00,31.8,8.5,30.79,NNW,338,0.0,0.0,37,0.00,,---,0.00,VWS V14.01,2014-01-07 04:18:00,
2014-01-06 22:23:00,31.6,8.3,30.79,North,0,0.0,0.0,37,0.00,,---,0.00,VWS V14.01,2014-01-07 04:23:00,
2014-01-06 22:28:00,31.6,8.9,30.79,West,270,0.0,0.0,38,0.00,,---,0.00,VWS V14.01,2014-01-07 04:28:00,
2014-01-06 22:33:00,31.4,8.7,30.79,NNW,338,0.0,0.0,38,0.00,,---,0.00,VWS V14.01,2014-01-07 04:33:00,
2014-01-06 22:38:00,31.4,8.7,30.79,NW,315,0.0,0.0,38,0.00,,---,0.00,VWS V14.01,2014-01-07 04:38:00,
2014-01-06 22:43:00,31.4,8.7,30.79,WNW,292,0.0,0.0,38,0.00,,---,0.00,VWS V14.01,2014-01-07 04:43:00,
2014-01-06 22:48:00,31.2,8.6,30.78,NNW,338,0.0,1.7,38,0.00,,---,0.00,VWS V14.01,2014-01-07 04:48:00,
2014-01-06 22:53:00,31.1,9.1,30.79,West,270,0.0,0.0,39,0.00,,---,0.00,VWS V14.01,2014-01-07 04:53:00,
2014-01-06 22:58:00,31.2,9.1,30.79,NNE,22,0.0,0.0,39,0.00,,---,0.00,VWS V14.01,2014-01-07 04:58:00,
2014-01-06 23:01:00,31.4,9.9,30.79,NNW,338,2.2,2.2,40,0.00,,---,0.00,VWS V14.01,2014-01-07 05:01:00,
2014-01-06 23:04:00,31.4,9.9,30.79,West,270,0.0,0.0,40,0.00,,---,0.00,VWS V14.01,2014-01-07 05:04:00,
2014-01-06 23:05:00,31.4,9.9,30.79,West,270,0.0,0.0,40,0.00,,---,0.00,VWS V14.01,2014-01-07 05:05:00,
2014-01-06 23:07:00,31.4,9.9,30.78,North,0,0.0,0.0,40,0.00,,---,0.00,VWS V14.01,2014-01-07 05:07:00,
2014-01-06 23:09:00,31.4,9.9,30.78,NNE,22,0.8,0.8,40,0.00,,---,0.00,VWS V14.01,2014-01-07 05:09:00,
2014-01-06 23:14:00,31.4,9.9,30.77,NNE,22,0.0,0.0,40,0.00,,---,0.00,VWS V14.01,2014-01-07 05:14:00,
2014-01-06 23:19:00,31.4,9.9,30.77,NNW,338,0.0,0.0,40,0.00,,---,0.00,VWS V14.01,2014-01-07 05:19:00,
2014-01-06 23:24:00,31.4,10.4,30.76,North,0,0.0,0.0,41,0.00,,---,0.00,VWS V14.01,2014-01-07 05:24:00,
2014-01-06 23:29:00,31.2,10.2,30.76,NNW,338,0.0,0.0,41,0.00,,---,0.00,VWS V14.01,2014-01-07 05:29:00,
2014-01-06 23:34:00,31.4,10.4,30.77,ENE,68,0.0,0.0,41,0.00,,---,0.00,VWS V14.01,2014-01-07 05:34:00,
2014-01-06 23:39:00,31.2,10.2,30.77,NNE,22,0.0,0.0,41,0.00,,---,0.00,VWS V14.01,2014-01-07 05:39:00,
2014-01-06 23:44:00,31.1,10.2,30.76,ENE,68,0.0,2.4,41,0.00,,---,0.00,VWS V14.01,2014-01-07 05:44:00,
2014-01-06 23:49:00,31.1,10.2,30.76,NNW,338,0.0,0.0,41,0.00,,---,0.00,VWS V14.01,2014-01-07 05:49:00,
2014-01-06 23:54:00,31.1,10.7,30.76,NE,45,0.0,0.0,42,0.00,,---,0.00,VWS V14.01,2014-01-07 05:54:00,
2014-01-06 23:59:00,31.1,10.7,30.76,NE,45,0.0,0.0,42,0.00,,---,0.00,VWS V14.01,2014-01-07 05:59:00,